Lid_Strength_Index
5 4 4 3 3 3 3 2 2 1 1 1 0 0 0 -0 -0 0 0 -0 0 0 -0 -1 -1 -2 -1 -1 -1 -1 -1 -1 -1
6 5 4 4 3 3 2 2 2 1 1 1 1 0 0 0 -0 -0 0 -0 -1 -0 -1 -1 -1 -1 -1 -1 -1 -1 -1 -0 -0
6 5 4 4 3 3 3 2 2 1 1 1 0 0 -0 0 -0 -0 -0 -0 -0 -0 -1 -1 -1 -1 -1 -1 -1 -1 -1 -0 -1
6 5 4 4 4 3 3 2 2 2 1 1 1 0 0 -0 0 -0 -0 -0 -0 -0 -1 -1 -1 -1 -1 -1 -1 -1 -1 -1 -0
6 5 5 4 4 3 2 2 2 2 1 1 1 0 0 0 -0 -0 0 0 -0 -1 -0 -1 -1 -1 -1 -0 -0 -1 -0 0 -0
6 5 5 4 4 4 3 3 2 2 1 1 0 0 0 0 0 0 0 -0 -0 -0 -1 -1 -1 -1 -0 -0 -0 -0 -0 -0 -0
6 6 5 5 4 4 3 3 2 2 2 1 1 1 1 1 1 0 0 -0 -0 -0 -1 -0 -0 -1 -0 -0 -0 -0 -0 -0 -0
6 6 6 5 5 4 3 3 2 2 2 1 1 1 1 1 0 -0 -0 -0 -0 -0 -0 -0 -1 -0 -0 -1 -0 -0 -0 -0 -0
7 6 5 5 4 4 4 4 3 2 2 1 1 1 1 1 0 0 0 -0 -0 -0 -0 -0 -1 -0 -0 -0 -0 3 4 1 -0
6 6 5 5 6 6 6 5 4 5 4 3 3 2 1 1 2 1 0 0 0 0 0 -0 0 0 -0 0 -0 6 5 4 -0
6 6 6 6 6 7 6 6 6 5 5 5 5 4 2 2 3 3 2 1 0 0 -0 0 0 0 -0 0 3 7 7 5 -0
6 5 5 6 6 6 7 7 7 7 7 6 5 5 3 3 3 3 3 3 3 2 1 1 0 0 0 1 4 8 8 2 -0
5 4 6 6 7 7 7 8 7 8 7 7 6 5 4 4 4 3 4 3 3 2 1 1 2 2 3 6 5 9 9 4 2
4 4 5 7 7 7 6 6 7 7 7 7 6 6 6 5 5 5 5 5 4 4 4 3 4 4 4 5 7 8 9 9 3
5 6 6 5 5 6 5 5 5 6 6 5 5 5 5 4 4 4 4 4 5 5 4 4 3 4 4 5 5 9 9 9 8
6 5 6 6 6 6 6 6 5 6 6 5 5 5 5 5 5 4 3 3 4 3 4 4 4 3 3 3 4 6 9 9 9
7 6 7 6 6 6 6 5 5 5 6 5 5 5 6 6 6 5 5 5 5 5 5 4 5 5 6 5 5 6 6 6 5
6 7 6 6 6 6 6 6 6 6 6 6 6 7 7 7 7 7 6 7 6 6 7 7 6 7 6 6 8 10 10 10 8
7 6 6 6 6 6 6 6 7 7 7 6 7 8 8 9 8 8 8 8 9 11 10 11 12 11 10 8 11 11 12 12 12
7 6 6 6 6 6 6 7 8 7 7 7 7 9 9 9 9 9 9 9 9 10 10 11 12 12 12 12 13 12 12 12 12